Location: Consuma
(43.7833°N, 11.5833°E)
Time: 08:11:08
(UTC+00:00)

Cosmos 292 Rocket - Pass Details

Date: 17 February 2020
Orbit: 674 x 693 km, 74.0° (Epoch: 30 March)

Event Time Altitude Azimuth Distance (km) Brightness Sun altitude
Exits shadow 04:43:31 26° 294° (WNW) 1,315 4.7 -16.3°
Maximum altitude 04:45:04 33° 258° (WSW) 1,140 4.4 -16.1°
Drops below altitude 10° 04:49:16 10° 195° (SSW) 2,101 6.1 -15.3°
Sets 04:51:43 0° 186° (S) 3,011 7.1 -14.9°
